User: anonymous
Location: Unspecified
(0.0000°N, 0.0000°E)
Time: 06:46:50
(UTC+02:00)
Language:

Cosmos 1538 Rocket - Orbit

View from above orbital plane
View from above orbital plane
View from above satellite
View from above satellite

Ground track
Ground track

The orbit data is extracted from the following two-line orbital elements,

1 14760U 84019B   14294.51634880  .00000247  00000-0  94310-4 0  4499
2 14760 074.0434 100.3805 0028178 200.6458 214.1172 14.35549055604425
Epoch (UTC): 21 October 2014 12:23:32
Eccentricity: 0.0028178
inclination: 74.0434°
perigee height: 753 km
apogee height: 793 km
right ascension of ascending node: 100.3805°
argument of perigee: 200.6458°
revolutions per day: 14.35549055
mean anomaly at epoch: 214.1172°
orbit number at epoch: 60442

The dashed part of the orbit path shows where the satellite is in the earth's shadow,  

DLR